Le nostre stazioni meteo in Italia

Pubblicità
Il mio iltempo24.it
London/Heathrow Intl, Gran Bretagna (3772): Temperatura & dewpoint: 13.04.2019 16:00:00 - 19.04.2019 16:00:00 (BST)London/Heathrow Intl, Gran Bretagna (3772): velocità del vento & gusts: 13.04.2019 16:00:00 - 19.04.2019 16:00:00 (BST)London/Heathrow Intl, Gran Bretagna (3772): direzione del vento: 13.04.2019 16:00:00 - 19.04.2019 16:00:00 (BST)London/Heathrow Intl, Gran Bretagna (3772): reduced air pressure: 13.04.2019 16:00:00 - 19.04.2019 16:00:00 (BST)London/Heathrow Intl, Gran Bretagna (3772): visibility: 13.04.2019 16:00:00 - 19.04.2019 16:00:00 (BST)London/Heathrow Intl, Gran Bretagna (3772): ore di luce: 13.04.2019 16:00:00 - 19.04.2019 16:00:00 (BST)London/Heathrow Intl, Gran Bretagna (3772): precipitazioni: 13.04.2019 16:00:00 - 19.04.2019 16:00:00 (BST)
Data & Tempo tt [°C] td [°C] ff [km/h] ff [kn] fx [km/h] fx [kn] dd ppp [hPa] vv [km] sd [min] rr [mm]
19.04.2019 16:00:00 23,8 4,4 15 8 - - ENE 1028,0 10 60 0,0
19.04.2019 15:00:00 23,3 6,1 15 8 - - E 1028,3 10 60 0,0
19.04.2019 14:00:00 22,9 6,2 15 8 - - ENE 1028,4 19 60 0,0
19.04.2019 13:00:00 21,4 6,7 13 7 - - ENE 1028,4 10 60 0,0
19.04.2019 12:00:00 20,1 7,7 15 8 - - ENE 1028,5 10 60 0,0
19.04.2019 11:00:00 17,5 7,2 11 6 - - NE 1028,4 10 60 0,0
19.04.2019 10:00:00 15,5 7,1 9 5 - - NE 1028,5 10 60 0,0
19.04.2019 09:00:00 13,8 6,9 11 6 - - NE 1028,2 11 60 0,0
19.04.2019 08:00:00 11,3 6,5 9 5 - - NE 1027,9 9 54 0,0
19.04.2019 07:00:00 9,0 5,7 8 4 - - NNE 1027,5 8 0 0,0
19.04.2019 06:00:00 8,8 5,4 8 4 - - N 1026,9 9 0 0,0
19.04.2019 05:00:00 9,5 5,4 9 5 - - NNE 1026,6 11 0 0,0
19.04.2019 04:00:00 10,5 5,5 8 4 - - NE 1026,5 10 0 0,0
19.04.2019 03:00:00 11,2 5,7 8 4 - - NE 1026,0 10 0 0,0
19.04.2019 02:00:00 11,0 5,5 8 4 - - NE 1026,1 10 0 0,0
19.04.2019 01:00:00 12,3 5,4 8 4 - - NE 1026,0 10 - 0,0
19.04.2019 00:00:00 13,4 5,6 9 5 - - NE 1025,9 10 0 0,0
18.04.2019 23:00:00 14,3 5,3 9 5 - - NE 1025,7 10 0 0,0
18.04.2019 22:00:00 15,3 5,0 11 6 - - ENE 1025,3 10 0 0,0
18.04.2019 21:00:00 16,2 5,1 11 6 - - ENE 1024,9 10 0 0,0
18.04.2019 20:00:00 16,4 5,1 11 6 - - E 1024,3 10 6 0,0
18.04.2019 19:00:00 18,4 4,8 18 10 - - E 1023,5 10 54 0,0
18.04.2019 18:00:00 19,6 4,0 21 11 - - E 1023,1 10 48 0,0
18.04.2019 17:00:00 19,7 5,3 21 11 - - E 1022,6 10 60 0,0
18.04.2019 16:00:00 21,1 6,8 26 14 - - E 1022,3 14 60 0,0
18.04.2019 15:00:00 21,8 7,6 22 12 - - E 1022,4 10 60 0,0
18.04.2019 14:00:00 20,0 8,7 26 14 - - E 1022,6 10 60 0,0
18.04.2019 13:00:00 19,4 9,1 22 12 - - E 1022,7 10 60 0,0
18.04.2019 12:00:00 18,6 9,7 13 7 - - ENE 1022,9 9 60 0,0
18.04.2019 11:00:00 16,8 10,3 15 8 - - E 1023,1 7 60 0,0
18.04.2019 10:00:00 14,3 9,2 16 9 - - ENE 1023,1 5 60 0,0
18.04.2019 09:00:00 11,7 8,8 11 6 - - ENE 1023,1 2,5 60 0,0
18.04.2019 08:00:00 9,0 7,7 11 6 - - ENE 1023,0 1,8 12 0,0
18.04.2019 07:00:00 8,0 7,2 8 4 - - ENE 1022,8 1,6 0 0,0
18.04.2019 06:00:00 8,2 7,4 9 5 - - NE 1022,5 1,5 0 0,0
18.04.2019 05:00:00 8,5 7,8 5 3 - - NE 1022,4 1,6 0 0,0
18.04.2019 04:00:00 8,7 7,7 8 4 - - ENE 1022,4 1,6 0 0,0
18.04.2019 03:00:00 8,9 7,7 5 3 - - ENE - 1,8 0 0,0
18.04.2019 02:00:00 9,2 7,8 9 5 - - ENE - 2,0 0 0,0
18.04.2019 01:00:00 9,8 8,0 13 7 - - ENE - 2,5 - 0,0
18.04.2019 00:00:00 10,3 8,0 9 5 - - ENE - 3,0 0 0,0
17.04.2019 23:00:00 10,6 8,1 16 9 - - E - 4,5 - 0,0
17.04.2019 22:00:00 11,2 6,6 11 6 - - E 1020,9 8 0 0,0
17.04.2019 21:00:00 13,3 6,8 15 8 - - ESE 1020,6 9 0 0,0
17.04.2019 20:00:00 14,8 7,5 21 11 - - ESE 1019,7 8 0 0,0
17.04.2019 19:00:00 16,3 8,5 21 11 - - ESE 1019,0 7 0 0,0
17.04.2019 18:00:00 17,1 8,0 16 9 - - E 1018,7 8 6 0,0
17.04.2019 17:00:00 18,9 7,9 13 7 - - ESE 1018,4 9 54 0,0
17.04.2019 16:00:00 18,9 6,2 5 3 - - - 1018,7 9 60 0,0
17.04.2019 15:00:00 18,7 6,3 5 3 - - ENE 1019,1 10 60 0,0
17.04.2019 14:00:00 17,7 6,4 9 5 - - E 1019,4 7 60 0,0
17.04.2019 13:00:00 16,6 8,0 4 2 - - O 1019,6 7 60 0,0
17.04.2019 12:00:00 14,5 7,0 5 3 - - - 1019,8 7 60 0,0
17.04.2019 11:00:00 13,1 7,7 5 3 - - - 1020,1 7 60 0,0
17.04.2019 10:00:00 10,8 7,2 5 3 - - - 1020,1 6 60 0,0
17.04.2019 09:00:00 7,9 5,7 9 5 - - N 1019,8 4,7 60 0,0
17.04.2019 08:00:00 7,6 5,6 5 3 - - - 1019,5 5 42 0,0
17.04.2019 07:00:00 7,0 5,4 9 5 - - NNE 1019,1 4,5 0 0,0
17.04.2019 06:00:00 7,3 5,4 5 3 - - N 1018,8 4,8 0 0,0
17.04.2019 05:00:00 7,9 5,7 4 2 - - NNE 1018,6 5 0 0,0
17.04.2019 04:00:00 9,0 7,5 5 3 - - NE 1018,3 3,2 0 0,0
17.04.2019 03:00:00 9,7 8,3 4 2 - - ONO 1018,3 3,4 0 0,0
17.04.2019 02:00:00 10,3 8,5 4 2 - - ONO 1018,1 3,6 0 0,0
17.04.2019 01:00:00 10,7 8,6 2 1 - - N 1018,1 4,5 - 0,0
17.04.2019 00:00:00 10,7 8,4 5 3 - - NNO 1018,2 4,2 0 0,0
16.04.2019 23:00:00 11,2 8,5 5 3 - - NNO 1017,9 5 0 0,0
16.04.2019 22:00:00 11,6 8,3 5 3 - - ONO 1017,8 6 0 0,0
16.04.2019 21:00:00 11,9 8,5 5 3 - - - 1017,6 6 0 0,0
16.04.2019 20:00:00 12,0 8,8 5 3 - - - 1017,0 7 0 0,0
16.04.2019 19:00:00 12,3 9,0 9 5 - - N 1016,3 7 0 0,0
16.04.2019 18:00:00 13,4 8,0 5 3 - - NNO 1015,7 7 0 0,0
16.04.2019 17:00:00 13,7 8,3 13 7 - - NO 1015,5 7 0 0,0
16.04.2019 16:00:00 14,2 8,9 15 8 - - O 1015,1 4,9 0 0,0
16.04.2019 15:00:00 14,8 8,0 18 10 - - O 1015,0 6 0 0,0
16.04.2019 14:00:00 16,0 7,1 5 3 - - - 1014,8 8 12 0,0
16.04.2019 13:00:00 14,9 7,2 8 4 - - N 1014,6 7 0 0,0
16.04.2019 12:00:00 13,7 7,3 5 3 - - - 1014,8 6 0 0,0
16.04.2019 11:00:00 13,5 7,5 4 2 - - - 1014,8 5 30 0,0
16.04.2019 10:00:00 12,2 7,9 5 3 - - - 1014,7 4,6 18 0,0
16.04.2019 09:00:00 9,9 6,9 4 2 - - - 1014,4 4,1 18 0,0
16.04.2019 08:00:00 7,9 5,8 4 2 - - - 1014,0 3,3 0 0,0
16.04.2019 07:00:00 7,1 5,0 5 3 - - N 1013,8 3,7 0 0,0
16.04.2019 06:00:00 7,1 4,7 4 2 - - - 1013,4 3,7 0 0,0
16.04.2019 05:00:00 7,1 4,7 8 4 - - NE 1013,5 4,2 0 0,0
16.04.2019 04:00:00 6,9 4,3 5 3 - - NE 1013,6 4,6 0 0,0
16.04.2019 03:00:00 7,1 4,2 4 2 - - NNE 1013,8 4,6 0 0,0
16.04.2019 02:00:00 7,5 4,3 5 3 - - NE 1014,2 5 0 0,0
16.04.2019 01:00:00 8,1 4,5 9 5 - - ENE 1014,8 6 - 0,0
16.04.2019 00:00:00 8,6 4,5 9 5 - - ENE 1015,3 6 0 0,0
15.04.2019 23:00:00 9,2 4,3 11 6 - - E 1015,5 8 0 0,0
15.04.2019 22:00:00 9,4 4,1 16 9 - - E 1015,7 9 0 0,0
15.04.2019 21:00:00 9,2 3,7 18 10 - - E 1015,8 9 0 0,0
15.04.2019 20:00:00 9,0 3,4 21 11 - - E 1016,1 9 0 0,0
15.04.2019 19:00:00 10,2 3,5 24 13 - - E 1015,6 10 48 0,0
15.04.2019 18:00:00 11,5 3,0 22 12 - - E 1016,0 10 60 0,0
15.04.2019 17:00:00 12,6 2,5 24 13 - - E 1016,3 10 60 0,0
15.04.2019 16:00:00 13,2 2,8 24 13 - - E 1016,8 10 60 0,0
15.04.2019 15:00:00 13,9 3,3 26 14 48 26 E 1017,4 10 60 0,0
15.04.2019 14:00:00 14,7 -0,2 31 17 - - ESE 1018,4 21 60 0,0
15.04.2019 13:00:00 13,9 1,2 28 15 - - ESE 1019,2 10 60 0,0
15.04.2019 12:00:00 13,6 1,6 31 17 48 26 ESE 1020,3 17 60 0,0
15.04.2019 11:00:00 12,5 1,2 28 15 50 27 ESE 1021,3 10 60 0,0
15.04.2019 10:00:00 10,9 0,9 26 14 - - ESE 1021,9 10 48 0,0
15.04.2019 09:00:00 8,6 1,3 21 11 - - ESE 1022,4 10 54 0,0
15.04.2019 08:00:00 7,3 1,9 18 10 - - ESE 1022,8 9 30 0,0
15.04.2019 07:00:00 5,2 1,6 15 8 - - E 1023,0 8 0 0,0
15.04.2019 06:00:00 5,1 2,3 11 6 - - E 1023,5 7 0 0,0
15.04.2019 05:00:00 4,8 2,1 8 4 - - ENE 1023,4 6 0 0,0
15.04.2019 04:00:00 4,7 1,9 9 5 - - ENE 1024,0 6 0 0,0
15.04.2019 03:00:00 4,5 1,8 11 6 - - E 1024,6 6 0 0,0
15.04.2019 02:00:00 5,1 2,0 11 6 - - E 1025,2 7 0 0,0
15.04.2019 01:00:00 5,0 1,9 13 7 - - E 1025,5 7 - 0,0
15.04.2019 00:00:00 5,0 1,6 16 9 - - E 1025,6 7 0 0,0
14.04.2019 23:00:00 4,7 1,1 16 9 - - E 1025,9 7 0 0,0
14.04.2019 22:00:00 5,1 1,0 18 10 - - E 1025,8 8 0 0,0
14.04.2019 21:00:00 5,5 0,2 18 10 - - E 1025,6 10 0 0,0
14.04.2019 20:00:00 6,3 -1,1 18 10 - - E 1025,1 10 6 0,0
14.04.2019 19:00:00 7,7 -2,0 24 13 - - E 1024,7 10 60 0,0
14.04.2019 18:00:00 8,8 -3,3 22 12 - - E 1024,5 10 54 0,0
14.04.2019 17:00:00 9,4 -1,6 21 11 - - ESE 1024,4 10 18 0,0
14.04.2019 16:00:00 9,6 -2,9 16 9 - - ESE 1024,9 10 30 0,0
14.04.2019 15:00:00 9,6 -3,0 15 8 - - ESE 1025,2 10 30 0,0
14.04.2019 14:00:00 10,3 -3,1 21 11 - - ESE 1024,1 10 36 0,0
14.04.2019 13:00:00 10,7 0,2 18 10 - - ESE 1024,6 10 36 0,0
14.04.2019 12:00:00 9,1 -0,2 18 10 - - ESE 1025,5 28 48 0,0
14.04.2019 11:00:00 7,7 0,3 21 11 - - E 1025,8 10 54 0,0
14.04.2019 10:00:00 6,4 1,0 9 5 - - ENE 1025,9 10 18 0,0
14.04.2019 09:00:00 3,8 0,1 11 6 - - ENE 1025,9 24 24 0,0
14.04.2019 08:00:00 2,7 -0,5 8 4 - - NNE 1025,7 24 60 0,0
14.04.2019 07:00:00 0,5 -1,5 5 3 - - N 1025,6 10 6 0,0
14.04.2019 06:00:00 0,5 -1,7 4 2 - - - 1025,5 10 0 0,0
14.04.2019 05:00:00 0,7 -1,8 5 3 - - NNE 1025,7 10 0 0,0
14.04.2019 04:00:00 0,7 -1,8 4 2 - - - 1025,9 10 0 0,0
14.04.2019 03:00:00 1,3 -1,9 5 3 - - NE 1025,9 29 0 0,0
14.04.2019 02:00:00 1,9 -2,0 5 3 - - NE 1026,3 30 0 0,0
14.04.2019 01:00:00 2,8 -2,0 5 3 - - NE 1026,5 10 - 0,0
14.04.2019 00:00:00 3,7 -1,1 9 5 - - ENE 1026,7 10 0 0,0
13.04.2019 23:00:00 4,4 -1,6 15 8 - - ENE 1026,4 10 0 0,0
13.04.2019 22:00:00 4,9 -1,0 13 7 - - E 1026,5 10 0 0,0
13.04.2019 21:00:00 4,2 -1,5 13 7 - - E 1026,5 10 0 0,0
13.04.2019 20:00:00 6,3 -2,3 15 8 - - E 1026,3 10 24 0,0
13.04.2019 19:00:00 7,5 -0,9 18 10 - - ENE 1026,4 10 42 0,0
13.04.2019 18:00:00 8,1 -2,1 15 8 - - ENE 1026,3 40 18 0,0
13.04.2019 17:00:00 9,3 -3,0 13 7 - - E 1026,4 10 54 0,0
13.04.2019 16:00:00 8,0 2,2 11 6 - - E 1026,8 10 6 0,0

tt = Temperatura
td = dewpoint
ff = velocità del vento
fx = gusts
dd = direzione del vento
ppp = reduced air pressure
vv = visibility
sd = ore di luce
rr = precipitazioni

Stazioni seguenti

WeatherPro
AMSI
MeteoEarth